Ketchikan, AK

6:31 AM AKDT on July 22, 2018 (GMT -0800)
Ketchikan International

Weather History for PAKT - December, 2017

Change the Weather History Date:

Monday, December 25, 2017

  Actual Average Record
Temperature  
Mean Temperature 33 °F -  
Max Temperature 36 °F 42 °F 50 °F (1989)
Min Temperature 30 °F 33 °F 6 °F (1964)
Degree Days  
Heating Degree Days 32    
Moisture  
Dew Point 29 °F    
Average Humidity 85    
Maximum Humidity 93    
Minimum Humidity 72    
Precipitation  
Precipitation 0.01 in - - ()
Sea Level Pressure  
Sea Level Pressure 30.34 in    
Wind  
Wind Speed 2 mph (West)    
Max Wind Speed 8 mph    
Max Gust Speed -    
Visibility 10 miles    
Events Snow    
Averages and records for this station are not official NWS values.
T = Trace of Precipitation, MM = Missing Value Source: NWS Daily Summary

Daily Weather History Graph

Daily Weather History Graph

Search for Another Location

Airport or City:

Astronomy

Dec. 25, 2017 Rise Set
Actual Time 8:13 AM AKST 3:20 PM AKST
Civil Twilight 7:27 AM AKST 4:06 PM AKST
Nautical Twilight 6:39 AM AKST 4:54 PM AKST
Astronomical Twilight 5:54 AM AKST 5:39 PM AKST
Moon 11:50 AM AKST (12/25) 11:37 PM AKST (12/25)
Length of Visible Light 8h 38m
Length of Day
7h 06m
Waxing Crescent, 45% of the Moon is Illuminated
Dec 25
Waxing Crescent
Dec 26
First Quarter
Jan 1
Full
Jan 8
Last Quarter
Jan 16
New

Hourly Weather History & Observations

Time (AKST) Temp. Windchill Dew Point Humidity Pressure Visibility Wind Dir Wind Speed Gust Speed Precip Events Conditions
12:03 AM 33.1 °F 30.0 °F 30.9 °F 92% 30.26 in 2.5 mi South 3.5 mph - 0.01 in Snow Light Snow
12:10 AM 33.1 °F - 30.9 °F 92% 30.26 in 3.0 mi Calm Calm - 0.01 in Snow Light Snow
12:48 AM 33.8 °F - 30.2 °F 87% 30.27 in 8.0 mi Calm Calm - 0.01 in Snow Light Snow
12:53 AM 33.1 °F 30.0 °F 30.9 °F 92% 30.28 in 9.0 mi SE 3.5 mph - 0.01 in   Overcast
1:07 AM 33.1 °F 30.0 °F 30.9 °F 92% 30.28 in 10.0 mi ESE 3.5 mph - N/A   Overcast
1:53 AM 33.1 °F - 30.9 °F 92% 30.29 in 10.0 mi Calm Calm - N/A   Overcast
2:50 AM 33.8 °F 29.6 °F 30.2 °F 87% 30.29 in 10.0 mi South 4.6 mph - N/A   Overcast
2:53 AM 33.1 °F 30.0 °F 30.0 °F 89% 30.30 in 10.0 mi South 3.5 mph - N/A   Overcast
3:53 AM 33.1 °F 30.0 °F 30.0 °F 89% 30.31 in 10.0 mi South 3.5 mph - N/A   Overcast
4:53 AM 33.1 °F - 30.9 °F 92% 30.31 in 10.0 mi Calm Calm - N/A   Overcast
5:53 AM 34.0 °F - 28.9 °F 82% 30.32 in 10.0 mi Calm Calm - N/A   Overcast
6:00 AM 33.1 °F - 28.9 °F 85% 30.31 in 10.0 mi Calm Calm - N/A   Overcast
6:09 AM 33.8 °F - 28.4 °F 81% 30.31 in 10.0 mi Calm Calm - N/A   Overcast
6:53 AM 32.0 °F - 30.2 °F 93% 30.32 in 10.0 mi Calm Calm - N/A   Overcast
7:53 AM 33.8 °F 29.6 °F 30.2 °F 87% 30.34 in 10.0 mi WNW 4.6 mph - N/A   Overcast
8:53 AM 33.1 °F - 28.9 °F 85% 30.36 in 10.0 mi Calm Calm - N/A   Overcast
9:53 AM 33.8 °F - 28.4 °F 81% 30.38 in 10.0 mi Calm Calm - N/A   Overcast
10:53 AM 35.6 °F 31.7 °F 30.2 °F 81% 30.38 in 10.0 mi WNW 4.6 mph - N/A   Overcast
11:53 AM 35.6 °F 29.9 °F 28.4 °F 75% 30.39 in 10.0 mi NNW 6.9 mph - N/A   Overcast
12:53 PM 35.6 °F 30.7 °F 28.4 °F 75% 30.39 in 10.0 mi NW 5.8 mph - N/A   Overcast
1:53 PM 36.0 °F 31.1 °F 28.0 °F 73% 30.39 in 10.0 mi NW 5.8 mph - N/A   Overcast
2:53 PM 35.6 °F 29.2 °F 28.4 °F 75% 30.40 in 10.0 mi NNW 8.1 mph - N/A   Overcast
3:53 PM 33.8 °F 29.6 °F 26.6 °F 75% 30.40 in 10.0 mi WNW 4.6 mph - N/A   Overcast
4:53 PM 35.1 °F - 27.0 °F 72% 30.40 in 10.0 mi Calm Calm - N/A   Overcast
5:53 PM 35.1 °F 32.2 °F 28.9 °F 78% 30.40 in 10.0 mi NW 3.5 mph - N/A   Overcast
6:53 PM 34.0 °F - 30.0 °F 85% 30.39 in 10.0 mi Calm Calm - N/A   Overcast
7:53 PM 34.0 °F - 30.0 °F 85% 30.38 in 10.0 mi Calm Calm - N/A   Overcast
8:01 PM 34.0 °F - 30.0 °F 85% 30.37 in 10.0 mi Calm Calm - N/A   Overcast
8:53 PM 30.9 °F - 28.9 °F 92% 30.38 in 10.0 mi Calm Calm - N/A   Partly Cloudy
9:53 PM 30.0 °F 26.5 °F 28.0 °F 92% 30.38 in 10.0 mi SW 3.5 mph - N/A   Overcast
10:03 PM 30.0 °F - 28.0 °F 92% 30.37 in 10.0 mi Calm Calm - N/A   Overcast
10:33 PM 30.9 °F - 28.9 °F 92% 30.37 in 10.0 mi Calm Calm - N/A   Overcast
10:53 PM 32.0 °F - 30.0 °F 92% 30.38 in 10.0 mi Calm Calm - N/A   Overcast
11:53 PM 33.1 °F - 30.0 °F 89% 30.36 in 10.0 mi Calm Calm - N/A   Overcast